Regional Weather Roundup
Issued by NWS

Home | Current Version | Previous Version | Text Only | Print | Product List | Glossary On
Versions: 1 2 3 4 5 6 7 8 9 10 11 12 13 14 15 16 17 18 19 20 21 22 23 24 25 26 27 28 29 30 31 32 33 34 35 36 37 38 39 40 41 42 43 44 45 46 47 48 49 50
000
ASUS46 KLOX 280612
RWRCA

SOUTHERN CALIFORNIA WEATHER ROUNDUP
NATIONAL WEATHER SERVICE OXNARD CALIFORNIA
1000 PM PST FRI FEB 27 2015

NOTE: "FAIR" INDICATES FEW OR NO CLOUDS BELOW 12,000 FEET WITH NO
SIGNIFICANT WEATHER AND/OR OBSTRUCTIONS TO VISIBILITY.

  -  STATIONS PRECEEDED BY AN ASTERISK (*) ARE NOT NWS OR FAA
     STATIONS AND ARE NOT SUBJECT TO NWS AND FAA QUALITY CONTROL.

CAZ041-042-087-280700-
LA AND ORANGE COUNTY COASTAL AREAS


CITY           SKY/WX    TMP DP  RH WIND       PRES   REMARKS
L.A. DOWNTOWN  CLEAR     59  51  75 VRB3      29.76S
L.A. AIRPORT   PTCLDY    58  50  75 W20       29.77R
LONG BEACH     CLOUDY    61  50  67 W7        29.78R

CITY           SKY/WX    TMP DP  RH WIND       PRES   REMARKS
AVALON           N/A     57 N/A N/A MISG        N/A
FULLERTON      MOCLDY    61  51  70 SW6       29.77S
*GETTY CENTER    N/A     54  50  87 N3          N/A
HAWTHORNE      CLEAR     60  50  69 W20       29.77F
*LOS ALAMITOS  MOCLDY    59  54  84 S8        29.78S
*REDONDO BEACH   N/A     59  51  75 W3        29.79R
SANTA ANA      MOCLDY    63  52  67 SW9       29.78S
STA MONICA APT MOCLDY    60  51  72 W3        29.76R
*UCLA            N/A     57  50  77 CALM      29.72S

$$

CAZ547-548-048-280700-
LA COUNTY VALLEYS AND INLAND EMPIRE


CITY           SKY/WX    TMP DP  RH WIND       PRES   REMARKS
BURBANK        MOCLDY    58  50  75 SE7       29.75S
VAN NUYS       CLOUDY    57  51  80 SE6       29.75S

CITY           SKY/WX    TMP DP  RH WIND       PRES   REMARKS
CORONA AIRPORT MOCLDY    58  50  75 SW9       29.78S
*CHATSWORTH      N/A     57  48  73 CALM      29.75S
CHINO          CLOUDY    58  52  80 SW6       29.79S
MARCH AFB      CLOUDY    55  48  77 W3        29.77S
*NORTHRIDGE      N/A     55  50  82 E1          N/A
ONTARIO        CLOUDY    56  50  80 SW7       29.77S
*PASADENA        N/A     57  52  82 N3          N/A
RIVERSIDE      CLOUDY    58  50  75 W9        29.77S
SAN BERNARDINO NOT AVBL
*WHITEMAN AP   NOT AVBL
*WOODLAND HILL   N/A     55  48  76 SW3         N/A

$$

CAZ054-055-280700-
LA AND SAN BERNARDINO COUNTY MOUNTAINS


CITY           SKY/WX    TMP DP  RH WIND       PRES   REMARKS
*BIG BEAR AIRP CLOUDY    34  32  93 SW16G28   29.75S WCI  23
*CHILAO          N/A     40  37  91 S10         N/A  WCI  33
MT WILSON NWS    N/A     39  39 100 MISG        N/A
SANDBERG       FOG       44  41  89 SW5       29.75F VSB 1/4
*WARM SPRINGS    N/A     44  44 100 CALM        N/A

$$

CAZ028-029-059-060-099-280700-
ANTELOPE VALLEY AND SURROUNDING AREAS


CITY           SKY/WX    TMP DP  RH WIND       PRES   REMARKS
LANCASTER      PTCLDY    49  44  83 SW12      29.73R
PALMDALE       PTCLDY    50  44  80 SW17      29.73S

CITY           SKY/WX    TMP DP  RH WIND       PRES   REMARKS
29 PALMS       PTCLDY    55  43  63 W18       29.73S
BARSTOW/DAGGET CLEAR     57  39  51 SW23G36   29.65R
BISHOP         PTCLDY    41  14  33 NW9         N/A
CHINA LAKE     CLEAR     57  25  29 W29G46    29.60R
EDWARDS AFB    PTCLDY    51  44  77 SW13      29.69R
MOJAVE         FAIR      52  37  58 W29G35    29.69S
NEEDLES        CLEAR     66  34  30 W13       29.60R
VICTORVILLE    PTCLDY    48  41  76 S7        29.72S

$$

CAZ039-040-280700-
VENTURA AND SANTA BARBARA COUNTY COAST


CITY           SKY/WX    TMP DP  RH WIND       PRES   REMARKS
CAMARILLO      CLEAR     57  47  69 W9        29.74S
OXNARD AIRPORT CLEAR     59  47  64 NW18G26   29.75R
*POINT MUGU    PTCLDY    60  50  69 W16G23    29.77R
SBA APT/GOLETA MOCLDY    57  45  64 SW14      29.77R
*SANTA BARBARA   N/A     57  45  63 N6        29.84S
*VENTURA         N/A     57  48  71 CALM      29.78S

$$

CAZ044-045-280700-
VENTURA COUNTY VALLEYS


CITY           SKY/WX    TMP DP  RH WIND       PRES   REMARKS
*SIMI VALLEY     N/A     55  48  79 CALM      29.73S
*OJAI            N/A     50  47  89 CALM      29.70S
*FILLMORE        N/A     56  52  84 CALM      29.65S

$$

CAZ053-280700-
VENTURA COUNTY MOUNTAINS


CITY           SKY/WX    TMP DP  RH WIND       PRES   REMARKS
*LOCKWOOD VLY    N/A     34  32  93 MISG        N/A
*ROSE VALLEY     N/A     37  39 100 MISG        N/A

$$

CAZ034-035-036-280700-
CENTRAL COAST AND SANTA YNEZ VALLEY


CITY           SKY/WX    TMP DP  RH WIND       PRES   REMARKS
SAN LUIS OBISP PTCLDY    51  46  83 NW12      29.80S
SANTA MARIA    CLEAR     53  47  79 NW10      29.82S

CITY           SKY/WX    TMP DP  RH WIND       PRES   REMARKS
*CAL POLY SLO    N/A     48  45  87 E1G12       N/A
*LOMPOC        PTCLDY    54  45  71 W9        29.83S
*PISMO BEACH     N/A     55  47  74 CALM      29.81F
*SANTA YNEZ    MOCLDY    52  45  76 NW8       29.82S

$$

CAZ037-038-051-280700-
SAN LUIS OBISPO COUNTY INTERIOR AND CUYAMA VALLEY


CITY           SKY/WX    TMP DP  RH WIND       PRES   REMARKS
*CUYAMA          N/A     47  43  85 CALM      29.75S
PASO ROBLES    PTCLDY    49  41  74 W6        29.79R

$$

CAZ032-033-061-280700-
SOUTHERN DESERTS


CITY           SKY/WX    TMP DP  RH WIND       PRES   REMARKS
BLYTHE         PTCLDY    64  44  48 SW16      29.63R
IMPERIAL       CLEAR     64  45  49 W23G29    29.68S
PALM SPRINGS   PTCLDY    65  42  43 SE8       29.65S
THERMAL        PTCLDY    66  43  43 NW14G20   29.64R

$$

ELSEWHERE ACROSS THE WESTERN UNITED STATES AND MEXICO


CITY           SKY/WX    TMP DP  RH WIND       PRES   REMARKS
DENVER, CO     PTCLDY     5   2  87 S8        29.90F WCI  -8
GRAND CANYON,  CLOUDY    31  30  96 CALM      29.72F
HONOLULU, HI   PTCLDY    73  66  78 NE7       29.95R
KAHULUI, MAUI  PTCLDY    75  68  78 NE8       29.95R
LAKE TAHOE, CA LGT SNOW  32  28  85 CALM      29.63F FOG
LAS VEGAS, NV  PTCLDY    58  36  43 S15       29.51F
MAMMOTH LAKES, CLOUDY    32   7  34 W5        29.65S WCI  27
MEXICO CITY, M CLEAR     63  36  36 S5        30.26S
PHOENIX, AZ    PTCLDY    66  38  35 SW8       29.67S
PORTLAND, OR   CLOUDY    48  39  71 N3        29.82R
RENO, NV       MOCLDY    38  32  79 CALM      29.64R
SALT LAKE CITY PTCLDY    33  24  69 S8        29.69F WCI  26
SAN DIEGO, CA  MOCLDY    62  51  67 SW9       29.84R
SAN FRANCISCO, PTCLDY    53  47  79 W21G26    29.77S
SAN JOSE, CA   MOCLDY    53  41  63 W13       29.78S
SEATTLE, WA    MOCLDY    47  40  76 N15       29.89R
TIJUANA, MEX   MOCLDY    59  48  67 SW8       29.85S

$$

STATION/POSITION TIME  TEMP    WIND        PRES    VSBY  WAVE
                       AIR SEA DIR/SP/G                  HT/PER
                 (UTC) (F)     (DEG/KT/KT) (MB)    (MI)  (FT/S)
POINT ARGUELLO B NOT AVBL
WEST SANTA BARBA 0600   57 58  340/ 19/ 23 1009.2R         7/ 8
POINT CONCEPTION NOT AVBL
EAST SANTA BARBA NOT AVBL
SANTA MONICA BAY 0600   59 62  280/ 21/ 25 1008.1R         7/ 6


USA.gov is the U.S. government's official web portal to all federal, state and local government web resources and services.